Year,Month,Day,Hour,Minute,Value (Times are PST for temperature in C)
2006,03,20,00,00,3.60
2006,03,20,00,01,3.60
2006,03,20,00,02,3.60
2006,03,20,00,03,3.60
2006,03,20,00,04,3.60
2006,03,20,00,05,3.60
2006,03,20,00,06,3.60
2006,03,20,00,07,3.60
2006,03,20,00,08,3.60
2006,03,20,00,09,3.60
2006,03,20,00,10,3.60
2006,03,20,00,11,3.60
2006,03,20,00,12,3.60
2006,03,20,00,13,3.50
2006,03,20,00,14,3.50
2006,03,20,00,15,3.50
2006,03,20,00,16,3.50
2006,03,20,00,17,3.50
2006,03,20,00,18,3.50
2006,03,20,00,19,3.50
2006,03,20,00,20,3.50
2006,03,20,00,21,3.50
2006,03,20,00,22,3.50
2006,03,20,00,23,3.50
2006,03,20,00,24,3.50
2006,03,20,00,25,3.50
2006,03,20,00,26,3.50
2006,03,20,00,27,3.50
2006,03,20,00,28,3.50
2006,03,20,00,29,3.50
2006,03,20,00,30,3.50
2006,03,20,00,31,3.50
2006,03,20,00,32,3.50
2006,03,20,00,33,3.50
2006,03,20,00,34,3.50
2006,03,20,00,35,3.50
2006,03,20,00,36,3.50
2006,03,20,00,37,3.50
2006,03,20,00,38,3.50
2006,03,20,00,39,3.50
2006,03,20,00,40,3.50
2006,03,20,00,41,3.50
2006,03,20,00,42,3.50
2006,03,20,00,43,3.50
2006,03,20,00,44,3.50
2006,03,20,00,45,3.60
2006,03,20,00,46,3.60
2006,03,20,00,47,3.60
2006,03,20,00,48,3.60
2006,03,20,00,49,3.60
2006,03,20,00,50,3.60
2006,03,20,00,51,3.60
2006,03,20,00,52,3.60
2006,03,20,00,53,3.70
2006,03,20,00,54,3.70
2006,03,20,00,55,3.70
2006,03,20,00,56,3.70
2006,03,20,00,57,3.70
2006,03,20,00,58,3.70
2006,03,20,00,59,3.60
2006,03,20,01,00,3.60
2006,03,20,01,01,3.60
2006,03,20,01,02,3.60
2006,03,20,01,03,3.60
2006,03,20,01,04,3.60
2006,03,20,01,05,3.60
2006,03,20,01,06,3.50
2006,03,20,01,07,3.50
2006,03,20,01,08,3.50
2006,03,20,01,09,3.50
2006,03,20,01,10,3.50
2006,03,20,01,11,3.50
2006,03,20,01,12,3.40
2006,03,20,01,13,3.40
2006,03,20,01,14,3.40
2006,03,20,01,15,3.40
2006,03,20,01,16,3.40
2006,03,20,01,17,3.40
2006,03,20,01,18,3.40
2006,03,20,01,19,3.40
2006,03,20,01,20,3.40
2006,03,20,01,21,3.40
2006,03,20,01,22,3.40
2006,03,20,01,23,3.40
2006,03,20,01,24,3.40
2006,03,20,01,25,3.40
2006,03,20,01,26,3.40
2006,03,20,01,27,3.30
2006,03,20,01,28,3.40
2006,03,20,01,29,3.40
2006,03,20,01,30,3.40
2006,03,20,01,31,3.40
2006,03,20,01,32,3.40
2006,03,20,01,33,3.30
2006,03,20,01,34,3.30
2006,03,20,01,35,3.30
2006,03,20,01,36,3.30
2006,03,20,01,37,3.30
2006,03,20,01,38,3.30
2006,03,20,01,39,3.30
2006,03,20,01,40,3.30
2006,03,20,01,41,3.30
2006,03,20,01,42,3.30
2006,03,20,01,43,3.30
2006,03,20,01,44,3.30
2006,03,20,01,45,3.30
2006,03,20,01,46,3.30
2006,03,20,01,47,3.30
2006,03,20,01,48,3.30
2006,03,20,01,49,3.30
2006,03,20,01,50,3.30
2006,03,20,01,51,3.30
2006,03,20,01,52,3.30
2006,03,20,01,53,3.30
2006,03,20,01,54,3.30
2006,03,20,01,55,3.30
2006,03,20,01,56,3.30
2006,03,20,01,57,3.30
2006,03,20,01,58,3.30
2006,03,20,01,59,3.30
2006,03,20,02,00,3.30
2006,03,20,02,01,3.30
2006,03,20,02,02,3.20
2006,03,20,02,03,3.20
2006,03,20,02,04,3.20
2006,03,20,02,05,3.20
2006,03,20,02,06,3.20
2006,03,20,02,07,3.20
2006,03,20,02,08,3.20
2006,03,20,02,09,3.20
2006,03,20,02,10,3.20
2006,03,20,02,11,3.20
2006,03,20,02,12,3.20
2006,03,20,02,13,3.20
2006,03,20,02,14,3.20
2006,03,20,02,15,3.20
2006,03,20,02,16,3.20
2006,03,20,02,17,3.20
2006,03,20,02,18,3.30
2006,03,20,02,19,3.30
2006,03,20,02,20,3.30
2006,03,20,02,21,3.30
2006,03,20,02,22,3.30
2006,03,20,02,23,3.30
2006,03,20,02,24,3.30
2006,03,20,02,25,3.30
2006,03,20,02,26,3.30
2006,03,20,02,27,3.30
2006,03,20,02,28,3.30
2006,03,20,02,29,3.40
2006,03,20,02,30,3.40
2006,03,20,02,31,3.40
2006,03,20,02,32,3.50
2006,03,20,02,33,3.50
2006,03,20,02,34,3.50
2006,03,20,02,35,3.50
2006,03,20,02,36,3.50
2006,03,20,02,37,3.50
2006,03,20,02,38,3.50
2006,03,20,02,39,3.50
2006,03,20,02,40,3.50
2006,03,20,02,41,3.50
2006,03,20,02,42,3.50
2006,03,20,02,43,3.40
2006,03,20,02,44,3.40
2006,03,20,02,45,3.40
2006,03,20,02,46,3.40
2006,03,20,02,47,3.50
2006,03,20,02,48,3.50
2006,03,20,02,49,3.50
2006,03,20,02,50,3.60
2006,03,20,02,51,3.60
2006,03,20,02,52,3.70
2006,03,20,02,53,3.70
2006,03,20,02,54,3.70
2006,03,20,02,55,3.80
2006,03,20,02,56,3.70
2006,03,20,02,57,3.70
2006,03,20,02,58,3.60
2006,03,20,02,59,3.60
2006,03,20,03,00,3.60
2006,03,20,03,01,3.60
2006,03,20,03,02,3.50
2006,03,20,03,03,3.50
2006,03,20,03,04,3.50
2006,03,20,03,05,3.40
2006,03,20,03,06,3.40
2006,03,20,03,07,3.40
2006,03,20,03,08,3.30
2006,03,20,03,09,3.30
2006,03,20,03,10,3.30
2006,03,20,03,11,3.30
2006,03,20,03,12,3.30
2006,03,20,03,13,3.30
2006,03,20,03,14,3.30
2006,03,20,03,15,3.30
2006,03,20,03,16,3.30
2006,03,20,03,17,3.30
2006,03,20,03,18,3.30
2006,03,20,03,19,3.40
2006,03,20,03,20,3.40
2006,03,20,03,21,3.40
2006,03,20,03,22,3.40
2006,03,20,03,23,3.40
2006,03,20,03,24,3.40
2006,03,20,03,25,3.40
2006,03,20,03,26,3.40
2006,03,20,03,27,3.50
2006,03,20,03,28,3.50
2006,03,20,03,29,3.50
2006,03,20,03,30,3.50
2006,03,20,03,31,3.50
2006,03,20,03,32,3.50
2006,03,20,03,33,3.50
2006,03,20,03,34,3.60
2006,03,20,03,35,3.60
2006,03,20,03,36,3.60
2006,03,20,03,37,3.60
2006,03,20,03,38,3.70
2006,03,20,03,39,3.70
2006,03,20,03,40,3.70
2006,03,20,03,41,3.70
2006,03,20,03,42,3.70
2006,03,20,03,43,3.70
2006,03,20,03,44,3.70
2006,03,20,03,45,3.70
2006,03,20,03,46,3.80
2006,03,20,03,47,3.80
2006,03,20,03,48,3.80
2006,03,20,03,49,3.80
2006,03,20,03,50,3.80
2006,03,20,03,51,3.80
2006,03,20,03,52,3.80
2006,03,20,03,53,3.80
2006,03,20,03,54,3.80
2006,03,20,03,55,3.80
2006,03,20,03,56,3.80
2006,03,20,03,57,3.80
2006,03,20,03,58,3.80
2006,03,20,03,59,3.90
2006,03,20,04,00,3.90
2006,03,20,04,01,3.90
2006,03,20,04,02,3.90
2006,03,20,04,03,3.90
2006,03,20,04,04,3.90
2006,03,20,04,05,3.90
2006,03,20,04,06,3.90
2006,03,20,04,07,4.00
2006,03,20,04,08,4.00
2006,03,20,04,09,4.00
2006,03,20,04,10,4.10
2006,03,20,04,11,4.10
2006,03,20,04,12,4.10
2006,03,20,04,13,4.10
2006,03,20,04,14,4.10
2006,03,20,04,15,4.20
2006,03,20,04,16,4.20
2006,03,20,04,17,4.20
2006,03,20,04,18,4.20
2006,03,20,04,19,4.20
2006,03,20,04,20,4.20
2006,03,20,04,21,4.30
2006,03,20,04,22,4.30
2006,03,20,04,23,4.30
2006,03,20,04,24,4.30
2006,03,20,04,25,4.30
2006,03,20,04,26,4.40
2006,03,20,04,27,4.40
2006,03,20,04,28,4.40
2006,03,20,04,29,4.40
2006,03,20,04,30,4.40
2006,03,20,04,31,4.40
2006,03,20,04,32,4.50
2006,03,20,04,33,4.50
2006,03,20,04,34,4.50
2006,03,20,04,35,4.50
2006,03,20,04,36,4.50
2006,03,20,04,37,4.50
2006,03,20,04,38,4.50
2006,03,20,04,39,4.50
2006,03,20,04,40,4.50
2006,03,20,04,41,4.50
2006,03,20,04,42,4.50
2006,03,20,04,43,4.50
2006,03,20,04,44,4.40
2006,03,20,04,45,4.40
2006,03,20,04,46,4.40
2006,03,20,04,47,4.40
2006,03,20,04,48,4.40
2006,03,20,04,49,4.30
2006,03,20,04,50,4.30
2006,03,20,04,51,4.30
2006,03,20,04,52,4.30
2006,03,20,04,53,4.30
2006,03,20,04,54,4.30
2006,03,20,04,55,4.40
2006,03,20,04,56,4.40
2006,03,20,04,57,4.30
2006,03,20,04,58,4.30
2006,03,20,04,59,4.30
2006,03,20,05,00,4.30
2006,03,20,05,01,4.30
2006,03,20,05,02,4.30
2006,03,20,05,03,4.30
2006,03,20,05,04,4.20
2006,03,20,05,05,4.20
2006,03,20,05,06,4.20
2006,03,20,05,07,4.20
2006,03,20,05,08,4.20
2006,03,20,05,09,4.20
2006,03,20,05,10,4.20
2006,03,20,05,11,4.20
2006,03,20,05,12,4.20
2006,03,20,05,13,4.20
2006,03,20,05,14,4.20
2006,03,20,05,15,4.20
2006,03,20,05,16,4.20
2006,03,20,05,17,4.20
2006,03,20,05,18,4.20
2006,03,20,05,19,4.20
2006,03,20,05,20,4.20
2006,03,20,05,21,4.20
2006,03,20,05,22,4.20
2006,03,20,05,23,4.10
2006,03,20,05,24,4.10
2006,03,20,05,25,4.10
2006,03,20,05,26,4.10
2006,03,20,05,27,4.10
2006,03,20,05,28,4.10
2006,03,20,05,29,4.10
2006,03,20,05,30,4.10
2006,03,20,05,31,4.10
2006,03,20,05,32,4.10
2006,03,20,05,33,4.00
2006,03,20,05,34,4.00
2006,03,20,05,35,4.00
2006,03,20,05,36,4.00
2006,03,20,05,37,4.00
2006,03,20,05,38,4.00
2006,03,20,05,39,4.00
2006,03,20,05,40,3.90
2006,03,20,05,41,3.90
2006,03,20,05,42,4.00
2006,03,20,05,43,4.00
2006,03,20,05,44,4.00
2006,03,20,05,45,4.00
2006,03,20,05,46,4.00
2006,03,20,05,47,4.00
2006,03,20,05,48,4.00
2006,03,20,05,49,4.00
2006,03,20,05,50,4.10
2006,03,20,05,51,4.10
2006,03,20,05,52,4.10
2006,03,20,05,53,4.10
2006,03,20,05,54,4.10
2006,03,20,05,55,4.10
2006,03,20,05,56,4.20
2006,03,20,05,57,4.20
2006,03,20,05,58,4.20
2006,03,20,05,59,4.20
2006,03,20,06,00,4.20
2006,03,20,06,01,4.20
2006,03,20,06,02,4.20
2006,03,20,06,03,4.20
2006,03,20,06,04,4.20
2006,03,20,06,05,4.20
2006,03,20,06,06,4.20
2006,03,20,06,07,4.20
2006,03,20,06,08,4.30
2006,03,20,06,09,4.30
2006,03,20,06,10,4.30
2006,03,20,06,11,4.30
2006,03,20,06,12,4.30
2006,03,20,06,13,4.30
2006,03,20,06,14,4.30
2006,03,20,06,15,4.30
2006,03,20,06,16,4.30
2006,03,20,06,17,4.30
2006,03,20,06,18,4.30
2006,03,20,06,19,4.30
2006,03,20,06,20,4.30
2006,03,20,06,21,4.30
2006,03,20,06,22,4.30
2006,03,20,06,23,4.30
2006,03,20,06,24,4.30
2006,03,20,06,25,4.30
2006,03,20,06,26,4.30
2006,03,20,06,27,4.30
2006,03,20,06,28,4.30
2006,03,20,06,29,4.30
2006,03,20,06,30,4.40
2006,03,20,06,31,4.40
2006,03,20,06,32,4.40
2006,03,20,06,33,4.50
2006,03,20,06,34,4.50
2006,03,20,06,35,4.40
2006,03,20,06,36,4.40
2006,03,20,06,37,4.40
2006,03,20,06,38,4.50
2006,03,20,06,39,4.50
2006,03,20,06,40,4.50
2006,03,20,06,41,4.50
2006,03,20,06,42,4.50
2006,03,20,06,43,4.50
2006,03,20,06,44,4.50
2006,03,20,06,45,4.50
2006,03,20,06,46,4.60
2006,03,20,06,47,4.60
2006,03,20,06,48,4.60
2006,03,20,06,49,4.70
2006,03,20,06,50,4.70
2006,03,20,06,51,4.80
2006,03,20,06,52,4.80
2006,03,20,06,53,4.90
2006,03,20,06,54,4.90
2006,03,20,06,55,4.90
2006,03,20,06,56,5.00
2006,03,20,06,57,5.10
2006,03,20,06,58,5.10
2006,03,20,06,59,5.10
2006,03,20,07,00,5.20
2006,03,20,07,01,5.20
2006,03,20,07,02,5.30
2006,03,20,07,03,5.30
2006,03,20,07,04,5.30
2006,03,20,07,05,5.30
2006,03,20,07,06,5.40
2006,03,20,07,07,5.40
2006,03,20,07,08,5.50
2006,03,20,07,09,5.50
2006,03,20,07,10,5.50
2006,03,20,07,11,5.60
2006,03,20,07,12,5.60
2006,03,20,07,13,5.60
2006,03,20,07,14,5.70
2006,03,20,07,15,5.70
2006,03,20,07,16,5.70
2006,03,20,07,17,5.70
2006,03,20,07,18,5.70
2006,03,20,07,19,5.70
2006,03,20,07,20,5.80
2006,03,20,07,21,5.80
2006,03,20,07,22,5.90
2006,03,20,07,23,5.90
2006,03,20,07,24,5.90
2006,03,20,07,25,6.00
2006,03,20,07,26,6.00
2006,03,20,07,27,6.00
2006,03,20,07,28,6.10
2006,03,20,07,29,6.10
2006,03,20,07,30,6.10
2006,03,20,07,31,6.10
2006,03,20,07,32,6.20
2006,03,20,07,33,6.20
2006,03,20,07,34,6.20
2006,03,20,07,35,6.20
2006,03,20,07,36,6.20
2006,03,20,07,37,6.30
2006,03,20,07,38,6.30
2006,03,20,07,39,6.30
2006,03,20,07,40,6.40
2006,03,20,07,41,6.40
2006,03,20,07,42,6.40
2006,03,20,07,43,6.40
2006,03,20,07,44,6.50
2006,03,20,07,45,6.60
2006,03,20,07,46,6.60
2006,03,20,07,47,6.60
2006,03,20,07,48,6.70
2006,03,20,07,49,6.70
2006,03,20,07,50,6.60
2006,03,20,07,51,6.60
2006,03,20,07,52,6.70
2006,03,20,07,53,6.70
2006,03,20,07,54,6.70
2006,03,20,07,55,6.70
2006,03,20,07,56,6.70
2006,03,20,07,57,6.80
2006,03,20,07,58,6.80
2006,03,20,07,59,6.80
2006,03,20,08,00,6.80
2006,03,20,08,01,6.80
2006,03,20,08,02,6.80
2006,03,20,08,03,6.90
2006,03,20,08,04,6.90
2006,03,20,08,05,6.90
2006,03,20,08,06,6.90
2006,03,20,08,07,6.90
2006,03,20,08,08,6.90
2006,03,20,08,09,7.00
2006,03,20,08,10,7.00
2006,03,20,08,11,7.00
2006,03,20,08,12,7.00
2006,03,20,08,13,7.10
2006,03,20,08,14,7.10
2006,03,20,08,15,7.10
2006,03,20,08,16,7.10
2006,03,20,08,17,7.10
2006,03,20,08,18,7.10
2006,03,20,08,19,7.10
2006,03,20,08,20,7.20
2006,03,20,08,21,7.20
2006,03,20,08,22,7.20
2006,03,20,08,23,7.20
2006,03,20,08,24,7.30
2006,03,20,08,25,7.30
2006,03,20,08,26,7.20
2006,03,20,08,27,7.10
2006,03,20,08,28,7.00
2006,03,20,08,29,6.90
2006,03,20,08,30,6.90
2006,03,20,08,31,6.90
2006,03,20,08,32,6.90
2006,03,20,08,33,6.90
2006,03,20,08,34,6.90
2006,03,20,08,35,6.90
2006,03,20,08,36,6.90
2006,03,20,08,37,6.90
2006,03,20,08,38,7.00
2006,03,20,08,39,7.00
2006,03,20,08,40,7.00
2006,03,20,08,41,7.10
2006,03,20,08,42,7.10
2006,03,20,08,43,7.20
2006,03,20,08,44,7.20
2006,03,20,08,45,7.20
2006,03,20,08,46,7.20
2006,03,20,08,47,7.20
2006,03,20,08,48,7.30
2006,03,20,08,49,7.20
2006,03,20,08,50,7.20
2006,03,20,08,51,7.20
2006,03,20,08,52,7.20
2006,03,20,08,53,7.30
2006,03,20,08,54,7.30
2006,03,20,08,55,7.40
2006,03,20,08,56,7.50
2006,03,20,08,57,7.50
2006,03,20,08,58,7.60
2006,03,20,08,59,7.60
2006,03,20,09,00,7.70
2006,03,20,09,01,7.70
2006,03,20,09,02,7.60
2006,03,20,09,03,7.60
2006,03,20,09,04,7.50
2006,03,20,09,05,7.50
2006,03,20,09,06,7.40
2006,03,20,09,07,7.40
2006,03,20,09,08,7.40
2006,03,20,09,09,7.40
2006,03,20,09,10,7.40
2006,03,20,09,11,7.40
2006,03,20,09,12,7.50
2006,03,20,09,13,7.50
2006,03,20,09,14,7.50
2006,03,20,09,15,7.40
2006,03,20,09,16,7.40
2006,03,20,09,17,7.40
2006,03,20,09,18,7.40
2006,03,20,09,19,7.40
2006,03,20,09,20,7.40
2006,03,20,09,21,7.40
2006,03,20,09,22,7.40
2006,03,20,09,23,7.60
2006,03,20,09,24,7.70
2006,03,20,09,25,7.80
2006,03,20,09,26,7.80
2006,03,20,09,27,7.70
2006,03,20,09,28,7.70
2006,03,20,09,29,7.60
2006,03,20,09,30,7.60
2006,03,20,09,31,7.60
2006,03,20,09,32,7.60
2006,03,20,09,33,7.70
2006,03,20,09,34,7.80
2006,03,20,09,35,7.80
2006,03,20,09,36,7.90
2006,03,20,09,37,7.90
2006,03,20,09,38,8.00
2006,03,20,09,39,7.90
2006,03,20,09,40,7.90
2006,03,20,09,41,7.80
2006,03,20,09,42,7.90
2006,03,20,09,43,7.90
2006,03,20,09,44,7.90
2006,03,20,09,45,7.90
2006,03,20,09,46,8.00
2006,03,20,09,47,8.10
2006,03,20,09,48,8.20
2006,03,20,09,49,8.20
2006,03,20,09,50,8.20
2006,03,20,09,51,8.20
2006,03,20,09,52,8.20
2006,03,20,09,53,8.20
2006,03,20,09,54,8.20
2006,03,20,09,55,8.20
2006,03,20,09,56,8.20
2006,03,20,09,57,8.20
2006,03,20,09,58,8.20
2006,03,20,09,59,8.30
2006,03,20,10,00,8.30
2006,03,20,10,01,8.30
2006,03,20,10,02,8.30
2006,03,20,10,03,8.40
2006,03,20,10,04,8.40
2006,03,20,10,05,8.40
2006,03,20,10,06,8.30
2006,03,20,10,07,8.20
2006,03,20,10,08,8.20
2006,03,20,10,09,8.20
2006,03,20,10,10,8.20
2006,03,20,10,11,8.20
2006,03,20,10,12,8.20
2006,03,20,10,13,8.20
2006,03,20,10,14,8.20
2006,03,20,10,15,8.30
2006,03,20,10,16,8.30
2006,03,20,10,17,8.30
2006,03,20,10,18,8.30
2006,03,20,10,19,8.30
2006,03,20,10,20,8.20
2006,03,20,10,21,8.20
2006,03,20,10,22,8.20
2006,03,20,10,23,8.20
2006,03,20,10,24,8.20
2006,03,20,10,25,8.20
2006,03,20,10,26,8.30
2006,03,20,10,27,8.30
2006,03,20,10,28,8.30
2006,03,20,10,29,8.20
2006,03,20,10,30,8.30
2006,03,20,10,31,8.40
2006,03,20,10,32,8.50
2006,03,20,10,33,8.50
2006,03,20,10,34,8.60
2006,03,20,10,35,8.70
2006,03,20,10,36,8.70
2006,03,20,10,37,8.80
2006,03,20,10,38,8.80
2006,03,20,10,39,8.80
2006,03,20,10,40,8.90
2006,03,20,10,41,8.90
2006,03,20,10,42,8.90
2006,03,20,10,43,9.00
2006,03,20,10,44,9.00
2006,03,20,10,45,9.10
2006,03,20,10,46,9.10
2006,03,20,10,47,9.10
2006,03,20,10,48,9.20
2006,03,20,10,49,9.20
2006,03,20,10,50,9.10
2006,03,20,10,51,9.20
2006,03,20,10,52,9.20
2006,03,20,10,53,9.20
2006,03,20,10,54,9.30
2006,03,20,10,55,9.30
2006,03,20,10,56,9.20
2006,03,20,10,57,9.20
2006,03,20,10,58,9.20
2006,03,20,10,59,9.20
2006,03,20,11,00,9.20
2006,03,20,11,01,9.20
2006,03,20,11,02,9.20
2006,03,20,11,03,9.20
2006,03,20,11,04,9.20
2006,03,20,11,05,9.20
2006,03,20,11,06,9.20
2006,03,20,11,07,9.20
2006,03,20,11,08,9.20
2006,03,20,11,09,9.20
2006,03,20,11,10,9.20
2006,03,20,11,11,9.30
2006,03,20,11,12,9.40
2006,03,20,11,13,9.40
2006,03,20,11,14,9.50
2006,03,20,11,15,9.50
2006,03,20,11,16,9.60
2006,03,20,11,17,9.60
2006,03,20,11,18,9.60
2006,03,20,11,19,9.60
2006,03,20,11,20,9.70
2006,03,20,11,21,9.80
2006,03,20,11,22,9.80
2006,03,20,11,23,9.70
2006,03,20,11,24,9.60
2006,03,20,11,25,9.60
2006,03,20,11,26,9.50
2006,03,20,11,27,9.50
2006,03,20,11,28,9.40
2006,03,20,11,29,9.40
2006,03,20,11,30,9.30
2006,03,20,11,31,9.20
2006,03,20,11,32,9.20
2006,03,20,11,33,9.20
2006,03,20,11,34,9.20
2006,03,20,11,35,9.20
2006,03,20,11,36,9.20
2006,03,20,11,37,9.20
2006,03,20,11,38,9.20
2006,03,20,11,39,9.20
2006,03,20,11,40,9.20
2006,03,20,11,41,9.20
2006,03,20,11,42,9.20
2006,03,20,11,43,9.20
2006,03,20,11,44,9.20
2006,03,20,11,45,9.30
2006,03,20,11,46,9.30
2006,03,20,11,47,9.30
2006,03,20,11,48,9.30
2006,03,20,11,49,9.40
2006,03,20,11,50,9.50
2006,03,20,11,51,9.60
2006,03,20,11,52,9.70
2006,03,20,11,53,9.80
2006,03,20,11,54,9.90
2006,03,20,11,55,10.00
2006,03,20,11,56,10.10
2006,03,20,11,57,10.10
2006,03,20,11,58,9.90
2006,03,20,11,59,9.80
2006,03,20,12,00,9.80
2006,03,20,12,01,9.70
2006,03,20,12,02,9.80
2006,03,20,12,03,9.80
2006,03,20,12,04,9.90
2006,03,20,12,05,9.90
2006,03,20,12,06,9.90
2006,03,20,12,07,10.00
2006,03,20,12,08,10.10
2006,03,20,12,09,10.10
2006,03,20,12,10,10.10
2006,03,20,12,11,10.10
2006,03,20,12,12,10.10
2006,03,20,12,13,10.20
2006,03,20,12,14,10.20
2006,03,20,12,15,10.10
2006,03,20,12,16,9.90
2006,03,20,12,17,10.00
2006,03,20,12,18,10.10
2006,03,20,12,19,10.10
2006,03,20,12,20,10.10
2006,03,20,12,21,10.00
2006,03,20,12,22,9.90
2006,03,20,12,23,9.90
2006,03,20,12,24,9.80
2006,03,20,12,25,9.90
2006,03,20,12,26,9.90
2006,03,20,12,27,9.90
2006,03,20,12,28,9.90
2006,03,20,12,29,9.90
2006,03,20,12,30,9.90
2006,03,20,12,31,9.80
2006,03,20,12,32,9.80
2006,03,20,12,33,9.80
2006,03,20,12,34,9.70
2006,03,20,12,35,9.80
2006,03,20,12,36,9.80
2006,03,20,12,37,9.90
2006,03,20,12,38,9.90
2006,03,20,12,39,10.10
2006,03,20,12,40,10.10
2006,03,20,12,41,10.20
2006,03,20,12,42,10.30
2006,03,20,12,43,10.40
2006,03,20,12,44,10.50
2006,03,20,12,45,10.50
2006,03,20,12,46,10.40
2006,03,20,12,47,10.30
2006,03,20,12,48,10.30
2006,03,20,12,49,10.30
2006,03,20,12,50,10.30
2006,03,20,12,51,10.30
2006,03,20,12,52,10.20
2006,03,20,12,53,10.10
2006,03,20,12,54,10.10
2006,03,20,12,55,10.10
2006,03,20,12,56,10.00
2006,03,20,12,57,9.90
2006,03,20,12,58,10.00
2006,03,20,12,59,10.10
2006,03,20,13,00,10.10
2006,03,20,13,01,10.10
2006,03,20,13,02,10.10
2006,03,20,13,03,10.10
2006,03,20,13,04,10.10
2006,03,20,13,05,10.10
2006,03,20,13,06,10.10
2006,03,20,13,07,10.10
2006,03,20,13,08,10.10
2006,03,20,13,09,10.10
2006,03,20,13,10,10.10
2006,03,20,13,11,10.10
2006,03,20,13,12,10.10
2006,03,20,13,13,10.10
2006,03,20,13,14,10.10
2006,03,20,13,15,10.10
2006,03,20,13,16,10.10
2006,03,20,13,17,10.10
2006,03,20,13,18,10.20
2006,03,20,13,19,10.30
2006,03,20,13,20,10.30
2006,03,20,13,21,10.40
2006,03,20,13,22,10.50
2006,03,20,13,23,10.60
2006,03,20,13,24,10.60
2006,03,20,13,25,10.70
2006,03,20,13,26,10.90
2006,03,20,13,27,10.90
2006,03,20,13,28,10.80
2006,03,20,13,29,10.80
2006,03,20,13,30,10.80
2006,03,20,13,31,10.90
2006,03,20,13,32,10.80
2006,03,20,13,33,10.80
2006,03,20,13,34,10.80
2006,03,20,13,35,10.80
2006,03,20,13,36,10.80
2006,03,20,13,37,10.70
2006,03,20,13,38,10.70
2006,03,20,13,39,10.80
2006,03,20,13,40,10.80
2006,03,20,13,41,10.80
2006,03,20,13,42,10.80
2006,03,20,13,43,10.80
2006,03,20,13,44,10.90
2006,03,20,13,45,10.90
2006,03,20,13,46,10.90
2006,03,20,13,47,10.90
2006,03,20,13,48,10.90
2006,03,20,13,49,10.90
2006,03,20,13,50,10.80
2006,03,20,13,51,10.70
2006,03,20,13,52,10.60
2006,03,20,13,53,10.60
2006,03,20,13,54,10.70
2006,03,20,13,55,10.70
2006,03,20,13,56,10.70
2006,03,20,13,57,10.80
2006,03,20,13,58,10.90
2006,03,20,13,59,10.90
2006,03,20,14,00,11.00
2006,03,20,14,01,11.10
2006,03,20,14,02,11.10
2006,03,20,14,03,11.10
2006,03,20,14,04,11.10
2006,03,20,14,05,11.10
2006,03,20,14,06,11.10
2006,03,20,14,07,11.10
2006,03,20,14,08,11.10
2006,03,20,14,09,11.10
2006,03,20,14,10,11.00
2006,03,20,14,11,10.90
2006,03,20,14,12,10.90
2006,03,20,14,13,10.80
2006,03,20,14,14,10.80
2006,03,20,14,15,10.70
2006,03,20,14,16,10.80
2006,03,20,14,17,10.80
2006,03,20,14,18,10.80
2006,03,20,14,19,10.80
2006,03,20,14,20,10.80
2006,03,20,14,21,10.90
2006,03,20,14,22,10.90
2006,03,20,14,23,10.90
2006,03,20,14,24,11.00
2006,03,20,14,25,11.10
2006,03,20,14,26,11.20
2006,03,20,14,27,11.20
2006,03,20,14,28,11.20
2006,03,20,14,29,11.20
2006,03,20,14,30,11.20
2006,03,20,14,31,11.10
2006,03,20,14,32,11.10
2006,03,20,14,33,11.00
2006,03,20,14,34,10.90
2006,03,20,14,35,11.00
2006,03,20,14,36,11.10
2006,03,20,14,37,11.10
2006,03,20,14,38,11.10
2006,03,20,14,39,11.10
2006,03,20,14,40,11.10
2006,03,20,14,41,11.10
2006,03,20,14,42,11.10
2006,03,20,14,43,11.00
2006,03,20,14,44,10.90
2006,03,20,14,45,10.90
2006,03,20,14,46,10.90
2006,03,20,14,47,10.90
2006,03,20,14,48,10.80
2006,03,20,14,49,10.80
2006,03,20,14,50,10.80
2006,03,20,14,51,10.80
2006,03,20,14,52,10.90
2006,03,20,14,53,10.90
2006,03,20,14,54,10.90
2006,03,20,14,55,10.90
2006,03,20,14,56,10.90
2006,03,20,14,57,10.90
2006,03,20,14,58,10.90
2006,03,20,14,59,10.90
2006,03,20,15,00,10.90
2006,03,20,15,01,10.90
2006,03,20,15,02,11.00
2006,03,20,15,03,11.10
2006,03,20,15,04,11.20
2006,03,20,15,05,11.30
2006,03,20,15,06,11.30
2006,03,20,15,07,11.40
2006,03,20,15,08,11.40
2006,03,20,15,09,11.40
2006,03,20,15,10,11.50
2006,03,20,15,11,11.50
2006,03,20,15,12,11.40
2006,03,20,15,13,11.40
2006,03,20,15,14,11.40
2006,03,20,15,15,11.40
2006,03,20,15,16,11.40
2006,03,20,15,17,11.40
2006,03,20,15,18,11.40
2006,03,20,15,19,11.50
2006,03,20,15,20,11.50
2006,03,20,15,21,11.40
2006,03,20,15,22,11.40
2006,03,20,15,23,11.40
2006,03,20,15,24,11.40
2006,03,20,15,25,11.40
2006,03,20,15,26,11.30
2006,03,20,15,27,11.30
2006,03,20,15,28,11.30
2006,03,20,15,29,11.30
2006,03,20,15,30,11.30
2006,03,20,15,31,11.30
2006,03,20,15,32,11.30
2006,03,20,15,33,11.40
2006,03,20,15,34,11.40
2006,03,20,15,35,11.40
2006,03,20,15,36,11.40
2006,03,20,15,37,11.40
2006,03,20,15,38,11.40
2006,03,20,15,39,11.40
2006,03,20,15,40,11.40
2006,03,20,15,41,11.30
2006,03,20,15,42,11.30
2006,03,20,15,43,11.30
2006,03,20,15,44,11.40
2006,03,20,15,45,11.40
2006,03,20,15,46,11.40
2006,03,20,15,47,11.40
2006,03,20,15,48,11.30
2006,03,20,15,49,11.30
2006,03,20,15,50,11.30
2006,03,20,15,51,11.40
2006,03,20,15,52,11.40
2006,03,20,15,53,11.40
2006,03,20,15,54,11.40
2006,03,20,15,55,11.40
2006,03,20,15,56,11.40
2006,03,20,15,57,11.60
2006,03,20,15,58,11.60
2006,03,20,15,59,11.60
2006,03,20,16,00,11.60
2006,03,20,16,01,11.60
2006,03,20,16,02,11.60
2006,03,20,16,03,11.60
2006,03,20,16,04,11.60
2006,03,20,16,05,11.60
2006,03,20,16,06,11.60
2006,03,20,16,07,11.50
2006,03,20,16,08,11.40
2006,03,20,16,09,11.30
2006,03,20,16,10,11.30
2006,03,20,16,11,11.20
2006,03,20,16,12,11.10
2006,03,20,16,13,11.10
2006,03,20,16,14,11.10
2006,03,20,16,15,11.10
2006,03,20,16,16,11.10
2006,03,20,16,17,11.10
2006,03,20,16,18,10.90
2006,03,20,16,19,11.00
2006,03,20,16,20,11.10
2006,03,20,16,21,11.10
2006,03,20,16,22,11.10
2006,03,20,16,23,11.10
2006,03,20,16,24,11.10
2006,03,20,16,25,11.10
2006,03,20,16,26,11.10
2006,03,20,16,27,11.20
2006,03,20,16,28,11.30
2006,03,20,16,29,11.40
2006,03,20,16,30,11.40
2006,03,20,16,31,11.40
2006,03,20,16,32,11.40
2006,03,20,16,33,11.40
2006,03,20,16,34,11.40
2006,03,20,16,35,11.40
2006,03,20,16,36,11.30
2006,03,20,16,37,11.30
2006,03,20,16,38,11.30
2006,03,20,16,39,11.20
2006,03,20,16,40,11.10
2006,03,20,16,41,11.10
2006,03,20,16,42,11.10
2006,03,20,16,43,11.10
2006,03,20,16,44,11.10
2006,03,20,16,45,11.10
2006,03,20,16,46,11.00
2006,03,20,16,47,10.90
2006,03,20,16,48,11.00
2006,03,20,16,49,11.10
2006,03,20,16,50,11.10
2006,03,20,16,51,11.00
2006,03,20,16,52,10.90
2006,03,20,16,53,10.90
2006,03,20,16,54,10.90
2006,03,20,16,55,10.90
2006,03,20,16,56,11.00
2006,03,20,16,57,11.10
2006,03,20,16,58,11.10
2006,03,20,16,59,11.20
2006,03,20,17,00,11.30
2006,03,20,17,01,11.30
2006,03,20,17,02,11.40
2006,03,20,17,03,11.40
2006,03,20,17,04,11.40
2006,03,20,17,05,11.40
2006,03,20,17,06,11.40
2006,03,20,17,07,11.40
2006,03,20,17,08,11.40
2006,03,20,17,09,11.40
2006,03,20,17,10,11.40
2006,03,20,17,11,11.40
2006,03,20,17,12,11.40
2006,03,20,17,13,11.40
2006,03,20,17,14,11.40
2006,03,20,17,15,11.40
2006,03,20,17,16,11.40
2006,03,20,17,17,11.40
2006,03,20,17,18,11.40
2006,03,20,17,19,11.40
2006,03,20,17,20,11.40
2006,03,20,17,21,11.40
2006,03,20,17,22,11.40
2006,03,20,17,23,11.40
2006,03,20,17,24,11.30
2006,03,20,17,25,11.30
2006,03,20,17,26,11.30
2006,03,20,17,27,11.20
2006,03,20,17,28,11.20
2006,03,20,17,29,11.20
2006,03,20,17,30,11.20
2006,03,20,17,31,11.20
2006,03,20,17,32,11.20
2006,03,20,17,33,11.20
2006,03,20,17,34,11.20
2006,03,20,17,35,11.20
2006,03,20,17,36,11.10
2006,03,20,17,37,11.10
2006,03,20,17,38,11.10
2006,03,20,17,39,11.10
2006,03,20,17,40,11.10
2006,03,20,17,41,11.10
2006,03,20,17,42,11.10
2006,03,20,17,43,11.10
2006,03,20,17,44,11.10
2006,03,20,17,45,11.10
2006,03,20,17,46,11.10
2006,03,20,17,47,11.10
2006,03,20,17,48,11.10
2006,03,20,17,49,11.10
2006,03,20,17,50,11.10
2006,03,20,17,51,11.10